THY83YT LTFH-LTAC

Flight info

Callsign THY83YT
Flight time 0h 47m
Altitude 36000
Route HAVZ1Y HAVZA UW71 ILHAN ILHA1S
Aircraft B738/M-VGDW/C

Departure

Time 2026-04-26 06:57
Airport Samsun-Çarşamba Airport (LTFH)

Arrival

Time 2026-04-26 07:45
Airport Esenboğa International Airport (LTAC)
Time Latitude Longitude Altitude Speed Heading
2026-04-26 06:36 41.25873 36.55527 24 ft 0 kts 221°
2026-04-26 06:47 41.25874 36.55528 24 ft 2 kts 221°
2026-04-26 06:48 41.25886 36.55542 27 ft 2 kts 220°
2026-04-26 06:48 41.25898 36.55556 30 ft 2 kts 223°
2026-04-26 06:48 41.25907 36.55574 29 ft 2 kts 272°
2026-04-26 06:48 41.25900 36.55593 30 ft 2 kts 311°
2026-04-26 06:49 41.25890 36.55609 29 ft 2 kts 311°
2026-04-26 06:49 41.25887 36.55613 28 ft 0 kts 315°
2026-04-26 06:53 41.25891 36.55607 24 ft 4 kts 315°
2026-04-26 06:53 41.25927 36.55560 29 ft 10 kts 314°
2026-04-26 06:54 41.25989 36.55475 28 ft 15 kts 314°
2026-04-26 06:54 41.26071 36.55363 24 ft 18 kts 314°
2026-04-26 06:54 41.26159 36.55244 24 ft 14 kts 322°
2026-04-26 06:54 41.26239 36.55256 27 ft 13 kts 43°
2026-04-26 06:55 41.26302 36.55336 26 ft 12 kts 43°
2026-04-26 06:55 41.26358 36.55409 28 ft 7 kts 52°
2026-04-26 06:55 41.26345 36.55460 27 ft 0 kts 135°
2026-04-26 06:56 41.26343 36.55463 27 ft 7 kts 135°
2026-04-26 06:56 41.26127 36.55768 24 ft 83 kts 133°
2026-04-26 06:57 41.25567 36.56546 25 ft 147 kts 133°
2026-04-26 06:57 41.24785 36.57638 465 ft 164 kts 133°
2026-04-26 06:57 41.24024 36.58727 1399 ft 164 kts 134°
2026-04-26 06:57 41.23228 36.59940 2096 ft 183 kts 133°
2026-04-26 06:58 41.22356 36.61323 2660 ft 210 kts 133°
2026-04-26 06:58 41.21363 36.62905 3075 ft 233 kts 132°
2026-04-26 06:58 41.20453 36.64742 3609 ft 247 kts 113°
2026-04-26 06:58 41.20109 36.67050 4124 ft 265 kts 92°
2026-04-26 06:59 41.20141 36.69521 4814 ft 276 kts 90°
2026-04-26 06:59 41.20654 36.71972 5696 ft 282 kts 56°
2026-04-26 06:59 41.22021 36.73840 6578 ft 285 kts 40°
2026-04-26 06:59 41.23589 36.75488 7325 ft 291 kts 26°
2026-04-26 07:00 41.25538 36.76115 8116 ft 290 kts 356°
2026-04-26 07:00 41.27494 36.75565 8949 ft 289 kts 334°
2026-04-26 07:00 41.29160 36.74108 9753 ft 288 kts 313°
2026-04-26 07:00 41.30554 36.72197 10545 ft 289 kts 310°
2026-04-26 07:01 41.31928 36.70227 11334 ft 292 kts 310°
2026-04-26 07:01 41.33223 36.68195 12085 ft 292 kts 297°
2026-04-26 07:01 41.33888 36.65676 12870 ft 290 kts 274°
2026-04-26 07:01 41.33755 36.63015 13651 ft 291 kts 253°
2026-04-26 07:02 41.33008 36.60504 14367 ft 294 kts 245°
2026-04-26 07:02 41.32129 36.58008 14834 ft 307 kts 244°
2026-04-26 07:02 41.31176 36.55352 14982 ft 329 kts 244°
2026-04-26 07:02 41.30166 36.52521 15132 ft 349 kts 245°
2026-04-26 07:03 41.29108 36.49512 15280 ft 368 kts 245°
2026-04-26 07:03 41.28012 36.46367 15626 ft 380 kts 245°
2026-04-26 07:03 41.26914 36.43208 16193 ft 383 kts 245°
2026-04-26 07:03 41.25792 36.39980 16840 ft 386 kts 245°
2026-04-26 07:04 41.24660 36.36733 17468 ft 389 kts 245°
2026-04-26 07:04 41.23516 36.33454 18045 ft 393 kts 245°
2026-04-26 07:04 41.22359 36.30142 18591 ft 397 kts 245°
2026-04-26 07:04 41.21193 36.26804 19123 ft 400 kts 245°
2026-04-26 07:05 41.20021 36.23453 19665 ft 402 kts 245°
2026-04-26 07:05 41.18836 36.20073 20205 ft 405 kts 245°
2026-04-26 07:05 41.17645 36.16678 20730 ft 408 kts 245°
2026-04-26 07:05 41.16456 36.13296 21210 ft 411 kts 245°
2026-04-26 07:06 41.15243 36.09849 21691 ft 414 kts 244°
2026-04-26 07:06 41.14019 36.06375 22173 ft 417 kts 244°
2026-04-26 07:06 41.12789 36.02883 22636 ft 419 kts 244°
2026-04-26 07:06 41.11548 35.99364 23071 ft 423 kts 244°
2026-04-26 07:07 41.10296 35.95819 23505 ft 426 kts 244°
2026-04-26 07:07 41.09041 35.92243 23857 ft 430 kts 246°
2026-04-26 07:07 41.07896 35.88573 24228 ft 432 kts 248°
2026-04-26 07:07 41.06839 35.84892 24585 ft 435 kts 249°
2026-04-26 07:08 41.05775 35.81127 24942 ft 437 kts 249°
2026-04-26 07:08 41.04695 35.77349 25277 ft 440 kts 249°
2026-04-26 07:08 41.03589 35.73556 25607 ft 443 kts 248°
2026-04-26 07:08 41.02465 35.69745 25942 ft 445 kts 248°
2026-04-26 07:09 41.01345 35.65917 26256 ft 447 kts 249°
2026-04-26 07:09 41.00239 35.62057 26567 ft 450 kts 249°
2026-04-26 07:09 40.99134 35.58169 26868 ft 452 kts 249°
2026-04-26 07:09 40.98038 35.54317 27166 ft 454 kts 249°
2026-04-26 07:10 40.94650 35.42514 28059 ft 460 kts 249°
2026-04-26 07:11 40.92369 35.34612 28887 ft 458 kts 249°
2026-04-26 07:11 40.91232 35.30679 29354 ft 457 kts 249°
2026-04-26 07:11 40.90098 35.26761 29755 ft 456 kts 249°
2026-04-26 07:11 40.88964 35.22845 30145 ft 456 kts 249°
2026-04-26 07:12 40.87845 35.18989 30494 ft 455 kts 249°
2026-04-26 07:12 40.86713 35.15093 30808 ft 455 kts 249°
2026-04-26 07:12 40.85577 35.11191 31100 ft 455 kts 249°
2026-04-26 07:12 40.84440 35.07289 31378 ft 456 kts 249°
2026-04-26 07:13 40.83299 35.03379 31662 ft 456 kts 249°
2026-04-26 07:13 40.82158 34.99476 31959 ft 456 kts 249°
2026-04-26 07:13 40.81017 34.95578 32271 ft 455 kts 249°
2026-04-26 07:13 40.79875 34.91682 32561 ft 455 kts 249°
2026-04-26 07:14 40.78746 34.87837 32858 ft 455 kts 249°
2026-04-26 07:14 40.77603 34.83950 33173 ft 454 kts 249°
2026-04-26 07:14 40.76461 34.80067 33458 ft 454 kts 249°
2026-04-26 07:14 40.75315 34.76182 33739 ft 454 kts 249°
2026-04-26 07:15 40.74168 34.72304 34026 ft 454 kts 248°
2026-04-26 07:15 40.73010 34.68442 34288 ft 453 kts 248°
2026-04-26 07:15 40.71845 34.64586 34573 ft 451 kts 248°
2026-04-26 07:15 40.70683 34.60755 34876 ft 449 kts 248°
2026-04-26 07:16 40.69526 34.56942 35220 ft 446 kts 248°
2026-04-26 07:16 40.68396 34.53220 35621 ft 441 kts 248°
2026-04-26 07:16 40.67259 34.49473 35894 ft 440 kts 248°
2026-04-26 07:16 40.66122 34.45731 36049 ft 441 kts 248°
2026-04-26 07:17 40.64975 34.41959 36044 ft 445 kts 248°
2026-04-26 07:17 40.62675 34.34409 36046 ft 443 kts 248°
2026-04-26 07:18 40.60388 34.26924 36054 ft 439 kts 248°
2026-04-26 07:18 40.58127 34.19543 36052 ft 437 kts 248°
2026-04-26 07:19 40.55853 34.12140 36055 ft 436 kts 248°
2026-04-26 07:19 40.53575 34.04744 36062 ft 436 kts 248°
2026-04-26 07:19 40.52430 34.01032 35728 ft 443 kts 248°
2026-04-26 07:20 40.51265 33.97263 35174 ft 445 kts 248°
2026-04-26 07:20 40.50132 33.93536 34548 ft 446 kts 250°
2026-04-26 07:20 40.49109 33.89665 33703 ft 451 kts 252°
2026-04-26 07:20 40.48163 33.85731 32954 ft 452 kts 253°
2026-04-26 07:21 40.47225 33.81786 32247 ft 453 kts 253°
2026-04-26 07:21 40.46267 33.77864 31762 ft 449 kts 252°
2026-04-26 07:21 40.45297 33.73988 31248 ft 445 kts 250°
2026-04-26 07:21 40.43890 33.70398 30730 ft 443 kts 234°
2026-04-26 07:22 40.41755 33.67495 30023 ft 445 kts 218°
2026-04-26 07:22 40.39297 33.65069 29455 ft 441 kts 217°
2026-04-26 07:22 40.36880 33.62715 28952 ft 436 kts 217°
2026-04-26 07:22 40.34467 33.60353 28456 ft 431 kts 217°
2026-04-26 07:23 40.32084 33.57996 27964 ft 427 kts 217°
2026-04-26 07:23 40.29735 33.55654 27464 ft 423 kts 218°
2026-04-26 07:23 40.27408 33.53325 26966 ft 419 kts 218°
2026-04-26 07:23 40.25104 33.51017 26457 ft 416 kts 218°
2026-04-26 07:24 40.22812 33.48722 25916 ft 414 kts 218°
2026-04-26 07:24 40.20529 33.46440 25378 ft 412 kts 218°
2026-04-26 07:24 40.18258 33.44173 24844 ft 410 kts 218°
2026-04-26 07:24 40.16063 33.41887 24463 ft 404 kts 221°
2026-04-26 07:25 40.13976 33.39495 24231 ft 395 kts 223°
2026-04-26 07:25 40.11942 33.37113 23816 ft 391 kts 222°
2026-04-26 07:25 40.09906 33.34758 23267 ft 390 kts 222°
2026-04-26 07:25 40.07874 33.32434 22799 ft 387 kts 221°
2026-04-26 07:26 40.05856 33.30141 22367 ft 382 kts 221°
2026-04-26 07:26 40.03857 33.27872 21872 ft 380 kts 221°
2026-04-26 07:26 40.01865 33.25629 21398 ft 378 kts 220°
2026-04-26 07:26 39.99793 33.23539 20931 ft 375 kts 217°
2026-04-26 07:27 39.97688 33.21559 20497 ft 372 kts 216°
2026-04-26 07:27 39.95627 33.19645 20083 ft 369 kts 216°
2026-04-26 07:27 39.93547 33.17701 19666 ft 365 kts 216°
2026-04-26 07:27 39.91497 33.15766 19252 ft 362 kts 217°
2026-04-26 07:28 39.89466 33.13836 18842 ft 360 kts 217°
2026-04-26 07:28 39.87457 33.11922 18444 ft 357 kts 217°
2026-04-26 07:28 39.85461 33.10023 18003 ft 354 kts 217°
2026-04-26 07:28 39.83482 33.08141 17561 ft 351 kts 217°
2026-04-26 07:29 39.81517 33.06273 17093 ft 349 kts 217°
2026-04-26 07:29 39.79588 33.04440 16650 ft 347 kts 217°
2026-04-26 07:29 39.77644 33.02595 16200 ft 345 kts 217°
2026-04-26 07:29 39.75711 33.00764 15782 ft 342 kts 217°
2026-04-26 07:30 39.73792 32.98944 15348 ft 341 kts 217°
2026-04-26 07:30 39.71879 32.97133 14951 ft 338 kts 217°
2026-04-26 07:30 39.70002 32.95357 14784 ft 329 kts 218°
2026-04-26 07:30 39.68182 32.93638 14679 ft 318 kts 218°
2026-04-26 07:31 39.66423 32.91976 14591 ft 307 kts 218°
2026-04-26 07:31 39.64748 32.90396 14528 ft 296 kts 218°
2026-04-26 07:31 39.63330 32.88553 14418 ft 285 kts 240°
2026-04-26 07:31 39.62651 32.86205 14282 ft 276 kts 262°
2026-04-26 07:32 39.62686 32.83751 14118 ft 271 kts 280°
2026-04-26 07:32 39.63311 32.81469 13848 ft 271 kts 299°
2026-04-26 07:32 39.64426 32.79504 13511 ft 272 kts 316°
2026-04-26 07:32 39.66071 32.78311 13304 ft 273 kts 343°
2026-04-26 07:33 39.67948 32.78166 13154 ft 272 kts
2026-04-26 07:33 39.69722 32.78995 12884 ft 274 kts 30°
2026-04-26 07:33 39.71266 32.80400 12605 ft 274 kts 34°
2026-04-26 07:33 39.72795 32.81877 12310 ft 274 kts 34°
2026-04-26 07:34 39.74326 32.83350 12036 ft 273 kts 35°
2026-04-26 07:34 39.75850 32.84814 11782 ft 272 kts 34°
2026-04-26 07:34 39.77372 32.86260 11521 ft 271 kts 34°
2026-04-26 07:34 39.78892 32.87699 11254 ft 270 kts 34°
2026-04-26 07:35 39.80406 32.89131 10996 ft 269 kts 34°
2026-04-26 07:35 39.81918 32.90561 10736 ft 268 kts 34°
2026-04-26 07:35 39.83422 32.91986 10490 ft 267 kts 34°
2026-04-26 07:35 39.84903 32.93388 10226 ft 267 kts 34°
2026-04-26 07:36 39.86398 32.94805 9978 ft 265 kts 34°
2026-04-26 07:36 39.87884 32.96214 9757 ft 262 kts 35°
2026-04-26 07:36 39.89397 32.97469 9616 ft 254 kts 18°
2026-04-26 07:36 39.91099 32.97734 9402 ft 244 kts 348°
2026-04-26 07:37 39.92676 32.97022 9111 ft 240 kts 326°
2026-04-26 07:37 39.94052 32.95806 8856 ft 238 kts 321°
2026-04-26 07:37 39.95379 32.94515 8614 ft 238 kts 321°
2026-04-26 07:37 39.96694 32.93244 8518 ft 230 kts 321°
2026-04-26 07:38 39.97892 32.92006 8408 ft 217 kts 307°
2026-04-26 07:38 39.98413 32.90255 8078 ft 208 kts 265°
2026-04-26 07:38 39.97874 32.88593 7778 ft 202 kts 222°
2026-04-26 07:38 39.96692 32.87597 7526 ft 204 kts 210°
2026-04-26 07:39 39.95437 32.86666 7168 ft 210 kts 210°
2026-04-26 07:39 39.94164 32.85714 6817 ft 212 kts 213°
2026-04-26 07:39 39.93257 32.84230 6421 ft 216 kts 254°
2026-04-26 07:39 39.93332 32.82286 6090 ft 220 kts 289°
2026-04-26 07:40 39.94123 32.80659 5970 ft 214 kts 316°
2026-04-26 07:40 39.95415 32.79745 5966 ft 215 kts 347°
2026-04-26 07:40 39.96890 32.79843 5976 ft 215 kts 20°
2026-04-26 07:40 39.98115 32.80935 5975 ft 216 kts 52°
2026-04-26 07:41 39.98887 32.82600 5988 ft 214 kts 63°
2026-04-26 07:41 39.99584 32.84325 5974 ft 215 kts 63°
2026-04-26 07:41 40.00278 32.86040 5972 ft 212 kts 63°
2026-04-26 07:41 40.00948 32.87692 5949 ft 201 kts 62°
2026-04-26 07:42 40.01897 32.89078 5513 ft 207 kts 38°
2026-04-26 07:42 40.03018 32.90248 5182 ft 206 kts 38°
2026-04-26 07:42 40.04129 32.91353 4929 ft 201 kts 37°
2026-04-26 07:42 40.05226 32.92403 4647 ft 191 kts 37°
2026-04-26 07:43 40.06258 32.93391 4416 ft 175 kts 36°
2026-04-26 07:43 40.07199 32.94291 4152 ft 161 kts 36°
2026-04-26 07:43 40.08074 32.95129 3905 ft 154 kts 36°
2026-04-26 07:43 40.08946 32.95959 3742 ft 155 kts 36°
2026-04-26 07:44 40.09835 32.96802 3568 ft 163 kts 37°
2026-04-26 07:44 40.10758 32.97693 3329 ft 164 kts 38°
2026-04-26 07:44 40.11651 32.98550 3116 ft 155 kts 38°
2026-04-26 07:44 40.12438 32.99305 3119 ft 129 kts 36°
2026-04-26 07:45 40.12970 32.99812 3122 ft 47 kts 39°
2026-04-26 07:45 40.13064 33.00035 3123 ft 25 kts 66°
2026-04-26 07:45 40.13077 33.00162 3125 ft 14 kts 142°
2026-04-26 07:45 40.12992 33.00136 3123 ft 13 kts 214°
2026-04-26 07:46 40.12918 33.00068 3120 ft 13 kts 216°
2026-04-26 07:46 40.12847 33.00000 3123 ft 12 kts 216°
2026-04-26 07:46 40.12779 32.99934 3122 ft 12 kts 217°
2026-04-26 07:46 40.12712 32.99869 3122 ft 12 kts 217°
2026-04-26 07:47 40.12646 32.99807 3122 ft 12 kts 216°
2026-04-26 07:47 40.12582 32.99746 3121 ft 11 kts 216°
2026-04-26 07:47 40.12515 32.99683 3121 ft 13 kts 216°
2026-04-26 07:47 40.12436 32.99607 3120 ft 15 kts 217°
2026-04-26 07:48 40.12344 32.99518 3119 ft 17 kts 214°
2026-04-26 07:48 40.12250 32.99427 3117 ft 17 kts 216°
2026-04-26 07:48 40.12158 32.99339 3117 ft 16 kts 216°
2026-04-26 07:48 40.12065 32.99250 3115 ft 18 kts 216°
2026-04-26 07:49 40.11961 32.99149 3114 ft 19 kts 216°
2026-04-26 07:49 40.11858 32.99053 3113 ft 8 kts 216°
2026-04-26 07:49 40.11801 32.99053 3112 ft 9 kts 143°
2026-04-26 07:50 40.11712 32.99190 3112 ft 11 kts 73°
2026-04-26 07:50 40.11723 32.99259 3112 ft 6 kts 120°
2026-04-26 07:50 40.11684 32.99283 3112 ft 6 kts 160°
2026-04-26 07:50 40.11665 32.99293 3112 ft 0 kts 159°
2026-04-26 07:51 40.11664 32.99293 3112 ft 1 kts 159°
2026-04-26 07:51 40.11657 32.99297 3112 ft 1 kts 159°
2026-04-26 07:51 40.11656 32.99297 3112 ft 0 kts 159°